Weather History for St. Joseph, MO

Change the Weather History Date:

Monday, May 12, 2014

  Actual Average Record
Temperature  
Mean Temperature 63 °F 63 °F  
Max Temperature 77 °F 74 °F 93 °F (1962)
Min Temperature 49 °F 52 °F 32 °F (2013)
Degree Days  
Heating Degree Days 2 4  
Month to date heating degree days 40 67  
Since 1 July heating degree days 6187 5405  
Cooling Degree Days 0 2  
Month to date cooling degree days 43 17  
Year to date cooling degree days 51 38  
Growing Degree Days 14 (Base 50)    
Moisture  
Dew Point 59 °F    
Average Humidity 79    
Maximum Humidity 93    
Minimum Humidity 64    
Precipitation  
Precipitation 1.05 in 0.18 in 3.82 in (1916)
Month to date precipitation 1.12 2.19  
Year to date precipitation 6.33 9.72  
Sea Level Pressure  
Sea Level Pressure 29.77 in    
Wind  
Wind Speed 14 mph (West)    
Max Wind Speed 26 mph    
Max Gust Speed 33 mph    
Visibility 7 miles    
Events Rain , Thunderstorm    
T = Trace of Precipitation, MM = Missing Value Source: NWS Daily Summary

Daily Weather History Graph

Daily Weather History Graph

Search for Another Location

Airport:

Trip Planner

Search our weather history database for the weather conditions in past years. The results will help you decide how hot, cold, wet, or windy it might be!

Date:

Astronomy

May. 12, 2014 Rise Set
Actual Time 6:07 AM CDT 8:24 PM CDT
Civil Twilight 5:37 AM CDT 8:55 PM CDT
Nautical Twilight 5:00 AM CDT 9:32 PM CDT
Astronomical Twilight 4:19 AM CDT 10:13 PM CDT
Moon 6:23 PM CDT (5/12) 4:47 AM CDT (5/12)
Length of Visible Light 15h 17m
Length of Day
14h 16m
Waxing Gibbous, 95% of the Moon is Illuminated
May 12
Waxing Gibbous
May 14
Full
May 21
Last Quarter
May 28
New
Jun 5
First Quarter

Hourly Weather History & Observations

Time (CDT) Temp. Dew Point Humidity Pressure Visibility Wind Dir Wind Speed Gust Speed Precip Events Conditions
12:53 AM 77.0 °F 64.0 °F 64% 29.69 in 10.0 mi South 13.8 mph - 0.00 in   Mostly Cloudy
1:28 AM 77.0 °F 64.0 °F 64% 29.70 in 10.0 mi South 13.8 mph - N/A Thunderstorm Scattered Clouds
1:51 AM 77.0 °F 64.4 °F 65% 29.70 in 10.0 mi South 12.7 mph - N/A   Mostly Cloudy
1:53 AM 77.0 °F 64.0 °F 64% 29.68 in 10.0 mi South 12.7 mph - N/A   Mostly Cloudy
2:53 AM 75.0 °F 64.9 °F 71% 29.62 in 10.0 mi South 21.9 mph - 0.00 in Rain Light Rain
3:40 AM 73.0 °F 66.0 °F 79% 29.68 in 9.0 mi South 16.1 mph - 0.01 in Rain , Thunderstorm Light Thunderstorms and Rain
3:53 AM 72.0 °F 66.9 °F 84% 29.65 in 8.0 mi SSE 15.0 mph - 0.02 in Rain , Thunderstorm Light Rain
4:53 AM 72.0 °F 66.9 °F 84% 29.64 in 10.0 mi SSE 18.4 mph 29.9 mph 0.02 in Thunderstorm Scattered Clouds
5:11 AM 70.0 °F 66.0 °F 87% 29.68 in 10.0 mi SSE 15.0 mph 26.5 mph 0.00 in Rain , Thunderstorm Light Rain
5:25 AM 70.0 °F 66.9 °F 90% 29.69 in 4.0 mi SE 16.1 mph - 0.06 in Rain , Thunderstorm Heavy Thunderstorms and Rain
5:53 AM 70.0 °F 64.9 °F 84% 29.65 in 10.0 mi Variable 3.5 mph - 0.10 in Thunderstorm Thunderstorm
6:07 AM 70.0 °F 66.0 °F 87% 29.67 in 6.0 mi WNW 11.5 mph 23.0 mph 0.07 in Rain , Thunderstorm Light Thunderstorms and Rain
6:38 AM 64.0 °F 62.1 °F 93% 29.76 in 4.0 mi NW 24.2 mph 32.2 mph 0.17 in Rain , Thunderstorm Thunderstorms and Rain
6:43 AM 64.0 °F 62.1 °F 93% 29.76 in 1.8 mi NW 18.4 mph 27.6 mph 0.29 in Rain , Thunderstorm Heavy Thunderstorms and Rain
6:53 AM 63.0 °F 62.1 °F 97% 29.73 in 2.5 mi North 8.1 mph - 0.36 in Rain , Thunderstorm Thunderstorms and Rain
6:55 AM 63.0 °F 62.1 °F 97% 29.76 in 3.0 mi NNW 6.9 mph - 0.00 in Rain , Thunderstorm Light Thunderstorms and Rain
7:04 AM 63.0 °F 62.1 °F 97% 29.78 in 0.8 mi NNE 4.6 mph - 0.19 in Rain , Thunderstorm Heavy Thunderstorms and Rain
7:13 AM 63.0 °F 60.1 °F 90% 29.74 in 2.5 mi ENE 12.7 mph - 0.21 in Rain , Thunderstorm Light Thunderstorms and Rain
7:17 AM 63.0 °F 60.1 °F 90% 29.73 in 6.0 mi ENE 11.5 mph - 0.21 in Rain , Thunderstorm Light Rain
7:30 AM 63.0 °F 61.0 °F 93% 29.72 in 10.0 mi ESE 13.8 mph - 0.21 in   Overcast
7:53 AM 64.0 °F 61.0 °F 90% 29.68 in 10.0 mi East 11.5 mph - 0.21 in   Mostly Cloudy
9:53 AM 69.1 °F 64.0 °F 84% 29.73 in 10.0 mi SE 11.5 mph - N/A   Overcast
10:53 AM 71.1 °F 66.0 °F 84% 29.73 in 9.0 mi SSW 15.0 mph - 0.01 in Rain Light Rain
11:53 AM 71.1 °F 64.0 °F 78% 29.74 in 10.0 mi SSW 11.5 mph - 0.00 in   Overcast
12:26 PM 71.1 °F 64.0 °F 78% 29.76 in 10.0 mi SSW 12.7 mph - N/A Thunderstorm Overcast
12:53 PM 70.0 °F 64.9 °F 84% 29.74 in 6.0 mi SSW 12.7 mph - 0.01 in Rain Light Rain
1:02 PM 68.0 °F 64.0 °F 87% 29.77 in 5.0 mi West 16.1 mph - 0.01 in Rain , Thunderstorm Thunderstorms and Rain
1:07 PM 64.0 °F 61.0 °F 90% 29.77 in 5.0 mi WNW 17.3 mph - 0.01 in Rain , Thunderstorm Light Thunderstorms and Rain
1:14 PM 62.1 °F 60.1 °F 93% 29.80 in 1.5 mi West 20.7 mph - 0.13 in Rain , Thunderstorm Light Thunderstorms and Rain
1:28 PM 60.1 °F 57.9 °F 93% 29.79 in 3.0 mi West 16.1 mph - 0.18 in Rain , Thunderstorm Thunderstorms and Rain
1:35 PM 59.0 °F 55.9 °F 90% 29.81 in 3.0 mi West 18.4 mph 24.2 mph 0.20 in Rain , Thunderstorm Light Thunderstorms and Rain
1:49 PM 57.2 °F 55.4 °F 94% 29.81 in 3.0 mi West 17.3 mph 26.5 mph 0.24 in Rain , Thunderstorm Rain
1:51 PM 57.2 °F 55.4 °F 94% 29.81 in 2.5 mi West 17.3 mph 26.5 mph 0.26 in Rain Rain
1:53 PM 57.9 °F 55.9 °F 93% 29.81 in 1.8 mi West 16.1 mph 26.5 mph 0.28 in Rain Heavy Rain
2:03 PM 57.9 °F 55.0 °F 90% 29.82 in 3.0 mi West 16.1 mph - 0.03 in Rain Light Rain
2:53 PM 57.9 °F 55.0 °F 90% 29.83 in 10.0 mi West 18.4 mph - 0.04 in   Overcast
3:08 PM 57.0 °F 53.1 °F 87% 29.85 in 10.0 mi West 17.3 mph - N/A   Overcast
3:53 PM 55.9 °F 52.0 °F 87% 29.85 in 10.0 mi WNW 17.3 mph - N/A   Overcast
4:48 PM 55.4 °F 51.8 °F 88% 29.88 in 10.0 mi NW 13.8 mph - N/A   Overcast
4:53 PM 55.9 °F 50.0 °F 80% 29.87 in 10.0 mi WNW 15.0 mph - N/A   Overcast
5:53 PM 55.0 °F 48.9 °F 80% 29.87 in 10.0 mi NW 18.4 mph 27.6 mph N/A   Overcast
6:53 PM 54.0 °F 46.9 °F 77% 29.90 in 10.0 mi WNW 17.3 mph 27.6 mph N/A   Overcast
7:53 PM 52.0 °F 46.9 °F 83% 29.92 in 10.0 mi NW 17.3 mph - N/A   Overcast
8:53 PM 51.1 °F 45.0 °F 80% 29.97 in 10.0 mi NNW 19.6 mph 26.5 mph N/A   Overcast
10:53 PM 50.0 °F 44.1 °F 80% 30.01 in 10.0 mi NNW 16.1 mph 24.2 mph N/A   Overcast
11:53 PM 50.0 °F 45.0 °F 83% 30.04 in 10.0 mi NNW 10.4 mph - N/A   Overcast